TimeCDT,TemperatureF,Dew PointF,Humidity,Sea Level PressureIn,VisibilityMPH,Wind Direction,Wind SpeedMPH,Gust SpeedMPH,PrecipitationIn,Events,Conditions,WindDirDegrees,DateUTC
12:55 AM,37.9,32.0,79,30.01,10.0,North,6.9,-,N/A,,Clear,360,2012-11-02 05:55:00
1:55 AM,37.9,32.0,79,30.00,10.0,NNE,8.1,-,N/A,,Clear,20,2012-11-02 06:55:00
2:55 AM,37.0,30.9,79,30.02,10.0,NNE,6.9,-,N/A,,Clear,30,2012-11-02 07:55:00
3:55 AM,35.1,30.0,82,30.03,10.0,NNE,6.9,-,N/A,,Clear,30,2012-11-02 08:55:00
4:55 AM,33.1,28.9,85,30.04,10.0,NE,5.8,-,N/A,,Clear,40,2012-11-02 09:55:00
5:55 AM,33.1,28.9,85,30.05,10.0,NE,5.8,-,N/A,,Clear,50,2012-11-02 10:55:00
6:55 AM,34.0,28.0,79,30.06,10.0,ENE,3.5,-,N/A,,Clear,60,2012-11-02 11:55:00
7:55 AM,33.1,28.0,82,30.08,10.0,East,4.6,-,N/A,,Clear,80,2012-11-02 12:55:00
8:55 AM,36.0,30.0,79,30.10,10.0,ENE,5.8,-,N/A,,Clear,70,2012-11-02 13:55:00
9:55 AM,39.9,30.9,70,30.11,10.0,East,8.1,-,N/A,,Clear,90,2012-11-02 14:55:00
10:55 AM,44.1,32.0,63,30.10,10.0,East,8.1,-,N/A,,Clear,100,2012-11-02 15:55:00
11:55 AM,46.9,30.9,54,30.09,10.0,ESE,10.4,-,N/A,,Clear,110,2012-11-02 16:55:00
12:55 PM,48.9,32.0,52,30.06,10.0,East,9.2,-,N/A,,Clear,100,2012-11-02 17:55:00
1:55 PM,51.1,33.1,50,30.05,10.0,ESE,11.5,-,N/A,,Clear,110,2012-11-02 18:55:00
2:55 PM,52.0,33.1,49,30.03,10.0,East,11.5,-,N/A,,Clear,90,2012-11-02 19:55:00
3:55 PM,51.1,33.1,50,30.02,10.0,East,11.5,-,N/A,,Clear,90,2012-11-02 20:55:00
4:55 PM,50.0,33.1,52,30.03,10.0,East,8.1,-,N/A,,Clear,100,2012-11-02 21:55:00
5:55 PM,48.9,32.0,52,30.02,10.0,East,9.2,-,N/A,,Clear,90,2012-11-02 22:55:00
6:55 PM,46.9,32.0,56,30.02,10.0,East,9.2,-,N/A,,Clear,80,2012-11-02 23:55:00
7:55 PM,44.1,30.9,60,30.03,10.0,ENE,9.2,-,N/A,,Clear,70,2012-11-03 00:55:00
8:55 PM,43.0,30.9,62,30.04,10.0,East,10.4,-,N/A,,Clear,80,2012-11-03 01:55:00
9:55 PM,42.1,30.9,65,30.04,10.0,East,9.2,-,N/A,,Clear,80,2012-11-03 02:55:00
10:55 PM,43.0,30.9,62,30.04,10.0,East,11.5,-,N/A,,Mostly Cloudy,90,2012-11-03 03:55:00
11:55 PM,45.0,30.9,58,30.03,10.0,East,11.5,-,N/A,,Overcast,90,2012-11-03 04:55:00